Other Surface Observations
Issued by NWS Tucson, AZ

Home | Current Version | Previous Version | Text Only | Print | Product List | Glossary On
Versions: 1 2 3 4 5 6 7 8 9 10 11 12 13 14 15 16 17 18 19 20 21 22 23 24 25 26 27 28 29 30 31 32 33 34 35 36 37 38 39 40 41 42 43 44 45 46 47 48 49 50
000
SXUS55 KTWC 280615
OSOTWC

WEATHER ROUNDUP FOR SOUTHEAST ARIZONA
NATIONAL WEATHER SERVICE TUCSON AZ
1115 PM MST THU NOV 27 2014

AZZ504>506-514-280715-
LOCATION       SKY/WX    TMP DP  RH WIND       PRES   REMARKS
TUCSON         CLEAR     63  20  19 E3        30.15S
DAVIS-MONTHAN  CLEAR     61  21  21 SE14      30.14S
CHILDRENS PARK N/A       53  24  32 NE3               PIMA CO DEQ
ALVERNON/22ND  N/A      N/A N/A N/A N/A               PIMA CO DEQ
CHERRY/GLENN   N/A      N/A N/A N/A N/A               PIMA CO DEQ
TANGERINE      N/A       56 N/A N/A NE5               PIMA CO DEQ
CONTL RANCH    N/A       58  26  29 SE2               PIMA CO DEQ
GRANT/1ST      N/A       65  20  18 SE6               PIMA CO DEQ
CRAYCROFT/22ND N/A      N/A N/A N/A N/A               PIMA CO DEQ
GOLFLINKS/KOLB N/A       63  21  20 SE6               PIMA CO DEQ
AJO/12TH       N/A       64  20  18 SE8               PIMA CO DEQ
SAGUARO EAST   N/A      N/A N/A N/A N/A               PIMA CO DEQ
FAIRGROUNDS    N/A       65 N/A N/A SE16              PIMA CO DEQ
SAGUARO        N/A       73  15  11 NE6G17            *SABINO CYN
SAN CARLOS     N/A       54  20  26 N3                *SAN CARLOS
GREEN VALLEY   N/A       56  21  25 S5                PIMA CO DEQ
HORSE CAMP CYN N/A       57  19  22 E14G18            *ARAVAIPA CYN
RINCON MTNS    N/A       52  10  18 E10G17            *NR MANNING CAMP
$$

AZZ509>511-280715-
LOCATION       SKY/WX    TMP DP  RH WIND       PRES   REMARKS
SAFFORD        CLEAR     53  22  29 SE9       30.23S
STRAY HORSE    N/A       45  12  26 NE2               *
TRAIL CABIN    N/A       43  20  39 SE5               *N OF GRANVILLE
BLACK HILLS    N/A       48  21  34 CALM              *N OF FT THOMAS
DRY LAKE       N/A       49  17  28 SE8G12            *NATANES MTNS
NOON CREEK     N/A       53  18  25 SW7G10            *PINALENO MTNS
COLUMBINE      N/A       41 -18   7 CALM              *PINALENO MTNS
GUTHRIE        N/A       50  20  30 SE12G17           *SW OF GUTHRIE
$$

AZZ502-503-513-280715-
LOCATION       SKY/WX    TMP DP  RH WIND       PRES   REMARKS
NOGALES        CLEAR     54  20  26 CALM      30.20S
SELLS          N/A       60  22  23 SW2G12            *
SASABE         N/A       47  24  40 SW4               *ALTAR VLY
HOPKINS        N/A       54  14  20 E7G15             *SANTA RITA MTNS
CARR CYN       N/A       58  17  20 SE6G11            *W OF HEREFORD
$$

AZZ507-508-512-280715-
LOCATION       SKY/WX    TMP DP  RH WIND       PRES   REMARKS
SIERRA VISTA   PTCLDY    53  19  26 S13       30.25F
DOUGLAS        CLEAR     41  19  41 N10       30.26S
EMPIRE MTNS    N/A       42  19  40 SW5               *LAS CIENEGAS NCA
MULESHOE RANCH N/A       62  20  20 E13G21            *PRESERVE
HEADQUARTERS   N/A       57  19  22 E6G12             *CHIRICAHUA MTNS
$$

.............................NOTES.............................
THIS IS AN AUTOMATED COLLECTIVE WITH MINIMAL QUALITY CONTROL.
PIMA CO DEQ SITES HAVE NONSTANDARD WIND SENSOR HEIGHTS.
PIMA CO DEQ SITES DO NOT REPORT WIND GUSTS.
* INDICATES WIND SENSORS LOCATED AT 20 FEET INSTEAD OF 33 FEET.
..............................KEY..............................
SKY/WX - SKY CONDITION/WEATHER
TMP    - TEMPERATURE IN FAHRENHEIT
DP     - DEWPOINT IN FAHRENHEIT
RH     - RELATIVE HUMIDITY IN PERCENT
WIND   - DIRECTION AND SPEED IN MILES PER HOUR (MPH)
VRB    - VARIABLE WIND DIRECTION
PRES   - MEAN SEA LEVEL PRESSURE IN INCHES OF MERCURY
         F - FALLING PRESSURE   R - RISING PRESSURE
         S - STEADY PRESSURE
VSB    - VISIBILITY IN MILES
HX     - HEAT INDEX IN FAHRENHEIT
WCI    - WIND CHILL INDEX IN FAHRENHEIT
N/A    - NOT AVAILABLE
AFB    - AIR FORCE BASE
         DAVIS-MONTHAN IS DAVIS-MONTHAN AIR FORCE BASE
CYN    - CANYON
MTNS   - MOUNTAINS
NCA    - NATIONAL CONSERVATION AREA
NR     - NEAR
VLY    - VALLEY
CONTL  - CONTINENTAL
PIMA CO DEQ - PIMA COUNTY DEPT OF ENVIRONMENTAL QUALITY



USA.gov is the U.S. government's official web portal to all federal, state and local government web resources and services.